Simultaneous Nadir Overpasses (SNOs) Predictions

Prediction of SNOs between NOAA-15 and METOP-C Satellite Orbit:

Table of predicted SNOs for the next 14.0 days since TLE Epoch: 1/10/2025
Index Date (NOAA-15) Time (NOAA-15) Lat,Lon (NOAA-15) SZA (NOAA-15 ) Date (METOP-C) Time (METOP-C) Lat,Lon (METOP-C) SZA (METOP-C ) Distance(km) Time Diff (sec)
1 01/19/2025 14:31:24 80.90, 1.84 102.81 01/19/2025 14:30:22 80.88, -3.31 102.33 90.63 62
2 01/19/2025 15:22:01 -81.01, 167.26 77.29 01/19/2025 15:20:54 -81.03, 167.14 77.30 2.81 67
3 01/19/2025 16:12:29 81.03, -25.66 102.70 01/19/2025 16:11:35 81.03, -25.52 102.69 2.53 54
4 01/19/2025 17:03:01 -81.04, 141.56 77.32 01/19/2025 17:02:16 -81.02, 141.66 77.34 2.21 45
5 01/19/2025 17:53:28 81.03, -51.00 102.68 01/19/2025 17:52:57 81.02, -51.00 102.66 1.05 31
6 01/19/2025 18:43:59 -81.02, 116.59 77.32 01/19/2025 18:43:37 -81.03, 116.55 77.33 1.42 22
7 01/19/2025 19:34:26 81.02, -75.98 102.68 01/19/2025 19:34:18 81.03, -76.11 102.67 2.69 8
8 01/19/2025 20:24:58 -81.03, 91.25 77.34 01/19/2025 20:24:59 -81.03, 91.07 77.36 3.09 1
9 01/19/2025 21:15:26 81.04,-101.69 102.64 01/19/2025 21:15:40 81.03,-101.59 102.64 2.46 14
10 01/19/2025 22:05:57 -81.03, 65.91 77.36 01/19/2025 22:06:20 -81.04, 65.96 77.35 1.03 23
11 01/19/2025 22:56:24 81.03,-126.67 102.64 01/19/2025 22:57:01 81.04,-126.70 102.65 1.03 37
12 01/19/2025 23:46:56 -81.04, 40.58 77.38 01/19/2025 23:47:42 -81.03, 40.48 77.38 1.74 46
13 01/20/2025 00:37:23 81.04,-152.01 102.62 01/20/2025 00:38:23 81.03,-152.18 102.62 3.00 60



Historial Predications of SNOs between NOAA-15 and METOP-C
